User: anonymous   Login
Location: Napier
(39.4830°S, 176.9170°E)
Time: 17:12:30
(UTC+13:00)
Language:

Cosmos 1933 - Orbit

View from above orbital plane
View from above orbital plane
View from above satellite
View from above satellite

Ground track
Ground track

The orbit data is extracted from the following two-line orbital elements,

1 18958U 88020A   19081.41035221  .00000645  00000-0  45149-4 0  9998
2 18958  82.5316 203.0106 0010080 251.7084 108.3046 15.03562574688176
Epoch (UTC): 22 March 2019 09:50:54
Eccentricity: 0.0010080
inclination: 82.5316°
perigee height: 549 km
apogee height: 563 km
right ascension of ascending node: 203.0106°
argument of perigee: 251.7084°
revolutions per day: 15.03562574
mean anomaly at epoch: 108.3046°
orbit number at epoch: 68817

The dashed part of the orbit path shows where the satellite is in the earth's shadow,  

DLR